| time (UTC) | temp F | wind direction | speed MPH | gust MPH | rain 1hr in | rain 24hr in | rain mn in | humidity % | barometer mb |
| 20260503181505 | 53 | 356 | 5.0 | 7.0 | 0.00 | 0.00 | 0.00 | 83 | 1007.4 |
| 20260503180004 | 54 | 353 | 4.0 | 7.0 | 0.00 | 0.00 | 0.00 | 82 | 1007.0 |
| 20260503081504 | 67 | 240 | 5.0 | 10.0 | 0.00 | 0.00 | 0.00 | 57 | 1008.2 |
| 20260503071505 | 64 | 206 | 3.0 | 10.0 | 0.00 | 0.00 | 0.00 | 60 | 1008.2 |
| 20260503054504 | 59 | 191 | 3.0 | 10.0 | 0.00 | 0.00 | 0.00 | 67 | 1008.7 |
| 20260503053004 | 58 | 206 | 3.0 | 6.0 | 0.00 | 0.00 | 0.00 | 68 | 1008.8 |
| 20260503044503 | 57 | 186 | 3.0 | 5.0 | 0.00 | 0.00 | 0.00 | 71 | 1008.8 |
| 20260503041504 | 55 | 204 | 2.0 | 5.0 | 0.00 | 0.00 | 0.00 | 71 | 1008.6 |
| 20260503040004 | 55 | 182 | 2.0 | 5.0 | 0.00 | 0.00 | 0.00 | 72 | 1008.6 |
| 20260503034504 | 54 | 174 | 1.0 | 3.0 | 0.00 | 0.00 | 0.00 | 73 | 1008.7 |
| 20260503031505 | 55 | 173 | 1.0 | 2.0 | 0.00 | 0.00 | 0.00 | 70 | 1008.7 |
| 20260503030013 | 56 | 189 | 1.0 | 3.0 | 0.00 | 0.00 | 0.00 | 68 | 1008.7 |
| 20260503024504 | 57 | 190 | 1.0 | 3.0 | 0.00 | 0.00 | 0.00 | 67 | 1009.0 |
| 20260503021504 | 58 | 182 | 2.0 | 5.0 | 0.00 | 0.00 | 0.00 | 65 | 1009.0 |
| 20260503014504 | 58 | 175 | 2.0 | 5.0 | 0.00 | 0.00 | 0.00 | 65 | 1009.3 |
| 20260503001504 | 57 | 173 | 2.0 | 7.0 | 0.00 | 0.00 | 0.00 | 67 | 1009.9 |
| 20260502231503 | 56 | 192 | 1.0 | 5.0 | 0.00 | 0.00 | 0.00 | 69 | 1010.3 |
| 20260502230004 | 56 | 175 | 1.0 | 3.0 | 0.00 | 0.00 | 0.00 | 68 | 1010.6 |
| 20260502220004 | 58 | 184 | 2.0 | 6.0 | 0.00 | 0.00 | 0.00 | 66 | 1010.6 |
| 20260502214504 | 58 | 196 | 3.0 | 5.0 | 0.00 | 0.00 | 0.00 | 64 | 1010.7 |
| 20260502213005 | 59 | 182 | 2.0 | 8.0 | 0.00 | 0.00 | 0.00 | 62 | 1010.8 |
| 20260502201504 | 62 | 193 | 6.0 | 15.0 | 0.00 | 0.00 | 0.00 | 61 | 1011.3 |
| 20260502200004 | 62 | 203 | 6.0 | 18.0 | 0.00 | 0.00 | 0.00 | 60 | 1011.3 |